Regional Weather Roundup
Issued by NWS Boston, MA

Current Version | Previous Version | Text Only | Print | Product List | Glossary Off
Versions: 1 2 3 4 5 6 7 8 9 10 11 12 13 14 15 16 17 18 19 20 21 22 23 24 25 26 27 28 29 30 31 32 33 34 35 36 37 38 39 40 41 42 43 44 45 46 47 48 49 50
000 ASUS41 KBOX 241110 RWRBOX REGIONAL WEATHER ROUNDUP NATIONAL WEATHER SERVICE BOSTON/NORTON MA 600 AM EST THU JAN 24 2019 NOTE: "FAIR" INDICATES FEW OR NO CLOUDS BELOW 12,000 FEET WITH NO SIGNIFICANT WEATHER AND/OR OBSTRUCTIONS TO VISIBILITY. MAZALL-241200- EASTERN MASSACHUSETTS CITY SKY/WX TMP DP RH WIND PRES REMARKS BOSTON CLOUDY 52 48 86 S24G30 29.76F BEVERLY CLOUDY 50 46 86 S13 29.75F LAWRENCE LGT RAIN 50 48 93 S9 29.75F FOG BEDFORD LGT RAIN 51 48 89 S15 29.74F FOG BLUE HILL N/A 49 49 100 S28G43 29.74F NORWOOD CLOUDY 54 51 90 S10G18 29.77F FOG MARSHFIELD MOCLDY 55 50 82 S14G29 29.79F PLYMOUTH CLOUDY 51 47 86 S22G32 29.82F TAUNTON CLOUDY 56 49 77 S13G28 29.81F NEW BEDFORD CLOUDY 53 51 93 S18G35 29.81F $$ MAZALL-241200- CAPE COD AND THE ISLANDS CITY SKY/WX TMP DP RH WIND PRES REMARKS FALMOUTH CLOUDY 54 48 82 S30G39 29.83F HYANNIS CLOUDY 44 41 89 S12 29.85F CHATHAM CLOUDY 47 43 86 S12G22 29.88F PROVINCETOWN CLOUDY 45 44 97 S16G26 29.84F NANTUCKET CLOUDY 46 43 89 S20 29.89F MARTHAS VNYRD CLOUDY 50 48 93 S18G25 29.86F $$ MAZALL-241200- CENTRAL AND WESTERN MASSACHUSETTS CITY SKY/WX TMP DP RH WIND PRES REMARKS WORCESTER LGT RAIN 49 49 100 SW23G35 29.72F FOG FITCHBURG LGT RAIN 47 47 100 SE9 29.72F FOG ORANGE LGT RAIN 50 47 89 S16G26 29.70F SPRINGFIELD NOT AVBL WESTFIELD CLOUDY 49 47 93 S14 29.69F NORTH ADAMS LGT RAIN 49 46 90 S13G25 29.64F PITTSFIELD LGT RAIN 49 46 90 S17G25 29.63F FOG $$ RIZALL-241200- RHODE ISLAND CITY SKY/WX TMP DP RH WIND PRES REMARKS PROVIDENCE LGT RAIN 54 51 90 SW24G41 29.80F FOG NEWPORT CLOUDY 51 48 89 S22G38 29.81F SMITHFIELD LGT RAIN 52 51 97 S12G20 29.77F WESTERLY CLOUDY 52 49 89 S15G29 29.80F $$ CTZALL-241200- CONNECTICUT CITY SKY/WX TMP DP RH WIND PRES REMARKS BRADLEY INTL LGT RAIN 47 47 100 S15 29.72F HARTFORD LGT RAIN 49 48 97 S12 29.74F FOG BRIDGEPORT CLOUDY 47 46 97 SW13 29.74F FOG DANBURY LGT RAIN 52 49 89 S13G25 29.72F GROTON CLOUDY 50 47 89 S20 29.78F NEW HAVEN CLOUDY 47 45 93 S6 29.75F FOG CHESTER CLOUDY 52 52 100 S13G22 29.77F MERIDEN RAIN 47 46 97 S10 29.74F FOG WILLIMANTIC LGT RAIN 52 52 100 S16G29 29.76F FOG OXFORD LGT RAIN 48 48 100 S15 29.73F FOG $$ MEZ002-015-021-024-NHZ003-005-008-011-012-014-VTZ005-008-241200- NORTHERN NEW ENGLAND CITY SKY/WX TMP DP RH WIND PRES REMARKS PORTLAND ME LGT RAIN 37 37 100 E6 29.74F VSB 1/2 BANGOR ME CLOUDY 40 39 97 S5 29.75F FOG CONCORD NH LGT RAIN 37 37 100 CALM 29.71F VSB 1/2 MANCHESTER NH LGT RAIN 47 46 97 S9 29.70F VSB 1/2 NASHUA NH LGT RAIN 49 49 100 VRB6 29.72F FOG PORTSMOUTH NH NOT AVBL JAFFREY NH LGT RAIN 49 48 97 S18G26 29.69F FOG KEENE NH LGT RAIN 36 36 100 CALM 29.68F FOG BURLINGTON VT CLOUDY 42 39 89 S12 29.56F MT. WASHINGTON RAIN 34 34 100 SW60G77 N/A VSB 0 WCI 16 $$ NYZ052-076-241200- EASTERN NEW YORK CITY SKY/WX TMP DP RH WIND PRES REMARKS ALBANY LGT RAIN 45 41 86 S12 29.62F NEW YORK CITY LGT RAIN 51 48 89 S16G24 29.71F $$ ANZALL-241200- MARINE OBSERVATIONS STATION/POSITION TIME TEMP WIND PRES VSBY WAVE AIR SEA DIR/SP/G HT/PER (UTC) (F) (DEG/KT/KT) (MB) (MI) (FT/S) BOSTON BUOY 1050 49 42 170/ 17/ 19 1008.1F 3/ 4 BUZZARDS BAY 1000 49 190/ 32/ 35 1011.1F NANTUCKET SOUND 1050 42 34 190/ 17/ 21 1011.5F 2/ 3 MASS BAY-STELLWA 1004 47 40 210/ 16/ 19 1007.7F 1 7/8 4/ 5 ISLE OF SHOALS 1100 47 190/ 27/ 29 1006.7F S OF BLOCK IS 1030 44 N/A 8/ 8 $$ ......................KEY......................... SKY/WX - SKY CONDITION/PRESENT WEATHER TMP - TEMPERATURE IN FAHRENHEIT DWPT - DEWPOINT IN FAHRENHEIT RH - RELATIVE HUMIDITY IN PERCENT WIND - DIRECTION AND SPEED IN MPH PRES - MEAN SEA LEVEL PRESSURE IN INCHES OF HG WCI - WIND CHILL INDEX VSB - VISIBILITY IN MILES HX - HEAT INDEX TC - TEMPERATURE IN CELSIUS VRB - VARIABLE WIND DIRECTION N/A - NOT AVAILABLE

USA.gov is the U.S. government's official web portal to all federal, state and local government web resources and services.